Flag for Canada Weather past 2 weeks in Inuvik, Northwest Territories, Canada

3 °F


Feels Like: -6 °F
Forecast: 4 / 18 °F
Wind: 5 mph from East

Location: Inuvik

Current Time: Nov 27, 2015 at 3:44:53 PM

Latest Report: Nov 27, 2015 at 3:00 PM

Visibility: 15 mi

Pressure: 30.15 "Hg

Humidity: 92%

Dew point: 1 °F

Location of InuvikLocation

Historic Weather in Inuvik — Graph


Inuvik temperature yesterday

Maximum temperature yesterday: 25 °F (at 2:00 PM)
Minimum temperature yesterday: 18 °F (at 4:00 AM)
Average temperature yesterday: 21 °F

Past Weeks' High & Low Weather Summary

High28 °F (Nov 25, 2:00 PM)100% (Nov 26, 5:00 AM)30.36 "Hg (Nov 26, 5:00 AM)
Low-17 °F (Nov 15, 1:00 PM)60% (Nov 20, 6:00 AM)29.25 "Hg (Nov 12, 2:00 PM)
Average2 °F83%29.86 "Hg
* Reported Nov 12 2:00 PM — Nov 27 2:00 PM, Inuvik, Weather by CustomWeather, © 2015

Note: Actual official high and low records may vary slightly from our data, if they occured in-between our weather recording intervals... More about our weather records


Inuvik weather history for previous 24 hours

Time TempWeatherWind HumidityBarometerVisibility
2:00 PM
Fri, Nov 27
5 °FFog.5 mph85%30.16 "Hg15 mi
1:00 PM9 °FFog.5 mph92%30.16 "Hg10 mi
12:00 PM10 °FPassing clouds.6 mph92%30.16 "Hg14 mi
11:00 AM14 °FPassing clouds.3 mph92%30.17 "Hg10 mi
10:00 AM16 °FPassing clouds.6 mph86%30.17 "Hg10 mi
9:00 AM16 °FPassing clouds.2 mph93%30.13 "Hg10 mi
8:00 AM18 °FLight snow. Overcast.6 mph86%30.12 "Hg10 mi
7:00 AM18 °FLight snow. Overcast.7 mph93%30.12 "Hg10 mi
6:00 AM18 °FLight snow. Mostly cloudy.5 mph93%30.11 "Hg10 mi
5:00 AM19 °FLight snow. Mostly cloudy.9 mph86%30.06 "Hg5 mi
4:00 AM19 °FLight snow. Mostly cloudy.8 mph86%30.02 "Hg10 mi
3:00 AM19 °FLight snow. Overcast.15 mph86%29.97 "Hg5 mi
2:00 AM18 °FLight snow. Overcast.14 mph93%29.92 "Hg5 mi
1:00 AM18 °FLight snow. Overcast.14 mph93%29.87 "Hg5 mi
12:00 AM18 °FLight snow. Overcast.10 mph93%29.83 "Hg15 mi
11:00 PM
Thu, Nov 26
18 °FLight snow. Mostly cloudy.10 mph93%29.79 "Hg6 mi
10:00 PM19 °FLight snow. Mostly cloudy.9 mph93%29.77 "Hg6 mi
9:00 PM19 °FLight snow. Mostly cloudy.9 mph93%29.74 "Hg3 mi
8:00 PM19 °FLight snow. Mostly cloudy.10 mph100%29.71 "Hg3 mi
7:00 PM21 °FLight snow. Mostly cloudy.9 mph100%29.68 "Hg2 mi
6:00 PM25 °FLight snow. Mostly cloudy.6 mph93%29.67 "Hg2 mi
5:00 PM25 °FLight snow. Ice fog.No wind100%29.67 "Hg1 mi
4:00 PM25 °FLight snow. Mostly cloudy.3 mph100%29.67 "Hg2 mi
3:00 PM25 °FLight snow. Mostly cloudy.5 mph100%29.67 "Hg2 mi
Weather by CustomWeather, © 2015

See weather overviewHow to use our weather pages